Flag for France Past Weather in Boulogne-Billancourt, Île-de-France, France — Yesterday and Last 2 Weeks

Now
59 °F

Passing clouds.


Feels Like: 58 °F
Forecast: 54 / 70 °F
Wind: 6 mph from Southwest

Location: Paris-Orly

Current Time: Jun 27, 2016 at 6:01:15 AM

Latest Report: Jun 27, 2016 at 5:30 AM


Visibility: N/A

Pressure: 30.15 "Hg

Humidity: 82%

Dew Point: 54 °F

Location of Boulogne-BillancourtLocation

Past Weather in Boulogne-Billancourt — Graph

°F

Boulogne-Billancourt Temperature Yesterday

Maximum temperature yesterday: 72 °F (at 5:30 PM)
Minimum temperature yesterday: 52 °F (at 1:30 AM)
Average temperature yesterday: 61 °F

High & Low Weather Summary for the Past Weeks

 TemperatureHumidityPressure
High88 °F (Jun 23, 3:00 PM)100% (Jun 12, 5:00 AM)30.30 "Hg (Jun 12, 5:00 AM)
Low52 °F (Jun 13, 6:00 AM)47% (Jun 25, 3:30 PM)29.47 "Hg (Jun 15, 5:00 AM)
Average64 °F81%29.94 "Hg
* Reported Jun 12 5:00 AM — Jun 27 5:00 AM, Boulogne-Billancourt, Weather by CustomWeather, © 2016

Note: Actual official high and low records may vary slightly from our data, if they occured in-between our weather recording intervals... More about our weather records

Advertising

Boulogne-Billancourt Weather History for the Previous 24 Hours

Scroll right to see more
 ConditionsComfort  
Time TempWeatherWind HumidityBarometerVisibility
5:00 AM
Mon, Jun 27
61 °FPassing clouds.6 mph77%30.15 "HgN/A
4:30 AM61 °FPassing clouds.6 mph77%30.15 "HgN/A
4:00 AM61 °FPassing clouds.3 mph77%30.15 "HgN/A
3:30 AM61 °FPassing clouds.3 mph77%30.15 "HgN/A
3:00 AM59 °FPassing clouds.3 mph82%30.15 "HgN/A
2:30 AM59 °FPassing clouds.3 mph82%30.15 "HgN/A
2:00 AM59 °FClear.2 mph82%30.15 "Hg10 mi
1:30 AM57 °FClear.3 mph82%30.15 "Hg10 mi
1:00 AM57 °FClear.2 mph88%30.15 "Hg10 mi
12:30 AM57 °FClear.2 mph82%30.18 "Hg10 mi
12:00 AM57 °FClear.3 mph82%30.18 "Hg10 mi
11:30 PM
Sun, Jun 26
59 °FPassing clouds.5 mph77%30.18 "HgN/A
11:00 PM61 °FPassing clouds.5 mph72%30.15 "HgN/A
10:30 PM63 °FScattered clouds.7 mph64%30.15 "HgN/A
10:00 PM64 °FBroken clouds.8 mph60%30.15 "HgN/A
9:30 PM66 °FBroken clouds.7 mph56%30.12 "HgN/A
9:00 PM66 °FSunny.5 mph56%30.12 "Hg10 mi
8:30 PM68 °FSunny.6 mph49%30.12 "Hg10 mi
8:00 PM68 °FPassing clouds.8 mph53%30.12 "HgN/A
7:30 PM68 °FPassing clouds.12 mph49%30.12 "HgN/A
7:00 PM70 °FPassing clouds.13 mph50%30.12 "HgN/A
6:30 PM70 °FPassing clouds.12 mph50%30.12 "HgN/A
6:00 PM72 °FPassing clouds.14 mph53%30.12 "HgN/A
5:30 PM72 °FPassing clouds.9 mph50%30.12 "HgN/A
5:00 PM68 °FBroken clouds.14 mph53%30.12 "HgN/A
4:30 PM68 °FBroken clouds.8 mph56%30.12 "HgN/A
4:00 PM68 °FBroken clouds.9 mph56%30.12 "HgN/A
3:30 PM68 °FBroken clouds.9 mph60%30.12 "HgN/A
3:00 PM66 °FBroken clouds.8 mph64%30.12 "HgN/A
2:30 PM68 °FBroken clouds.9 mph56%30.12 "HgN/A
2:00 PM68 °FBroken clouds.9 mph64%30.12 "HgN/A
1:30 PM68 °FBroken clouds.9 mph60%30.12 "HgN/A
1:00 PM68 °FBroken clouds.9 mph60%30.12 "HgN/A
12:30 PM66 °FBroken clouds.8 mph64%30.15 "HgN/A
12:00 PM64 °FPartly sunny.9 mph68%30.15 "HgN/A
11:30 AM64 °FPartly sunny.9 mph73%30.15 "HgN/A
11:00 AM63 °FPartly sunny.9 mph73%30.15 "HgN/A
10:30 AM61 °FPartly sunny.9 mph77%30.15 "HgN/A
10:00 AM61 °FPartly sunny.8 mph83%30.12 "HgN/A
9:30 AM59 °FPartly sunny.7 mph82%30.15 "HgN/A
9:00 AM59 °FPartly sunny.7 mph82%30.12 "HgN/A
8:30 AM57 °FPartly sunny.8 mph88%30.12 "HgN/A
8:00 AM55 °FScattered clouds.8 mph94%30.12 "HgN/A
7:30 AM55 °FPassing clouds.7 mph88%30.12 "HgN/A
7:00 AM54 °FPassing clouds.6 mph94%30.12 "HgN/A
6:30 AM52 °FPassing clouds.7 mph94%30.12 "HgN/A
6:00 AM52 °FPassing clouds.6 mph94%30.12 "HgN/A
Weather by CustomWeather, © 2016

See weather overviewHow to use our weather pages